Content
SEND FEEDBACK

Daily
Averages
Monthly
Summary
United States of America

CAMP QUEZON, GUAM


Home > North America > United States > Guam
Elevation: 269 feet     Latitude: 13 28N     Longitude: 144 48E

WEATHER
 
SELECT A DAY
Number of Records: 213,081;   Date Range: 1/1/95 - 9/30/14
 
SHARE

PRINT THIS DATA

[ ← Previous Day ]
WEATHER ALMANAC - JULY 18, 2013
[ Next Day → ]
[ °C ]   °F
Weather ElementAverageHighLow
Temperature86.6 °F91 °F (12:54 pm)82.4 °F (6:02 am)
Dewpoint75.9 °F77 °F (5:54 am)75 °F (11:54 am)
Humidity70.5 %84 % (6:02 am)59 % (12:54 pm)
Barometer29.80 in29.85 in (9:07 am)29.76 in (3:54 pm)
Wind Speed7.1 mph11.5 mph (10:54 am)
Wind Gust18.4 mph (11:54 am)
Weather ElementAverage
Visibility10 mi
Wind DirectionENE (82.1 °)

Weather ElementTotal
Precipitation---
Cooling Degree Days21.7 (Base 65)
Growing Degree Days36.7 (Base 50)
Averaged from 28 records on July 18, 2013
WEATHER CONDITIONS BREAKOUT
WIND DIRECTION BREAKOUT
WEATHER BY HOUR - JULY 18, 2013
[ °C ]   °F
Local TimeTemperatureDewpointHumidityBarometerVisibilityWind DirectionWind SpeedGust SpeedPrecipitationEventsConditions
1:54 AM82.9 °F75.9 °F79 %29.79 in10.0 miEast (80°)3.5 mphScattered Clouds
2:54 AM82.9 °F75.9 °F79 %29.78 in10.0 miEast (80°)4.6 mphPartly Cloudy
3:54 AM82.9 °F75.9 °F79 %29.77 in10.0 miNE (50°)4.6 mphPartly Cloudy
4:54 AM82.9 °F75.9 °F79 %29.77 in10.0 miEast (90°)3.5 mphScattered Clouds
5:54 AM82.9 °F77.0 °F82 %29.78 in10.0 miEast (80°)3.5 mphMostly Cloudy
6:02 AM82.4 °F77.0 °F84 %29.80 in10.0 miEast (90°)3.5 mphScattered Clouds
6:54 AM82.9 °F75.9 °F79 %29.80 in10.0 miEast (80°)3.5 mphClear
7:54 AM86.0 °F77.0 °F74 %29.81 in10.0 miEast (100°)5.8 mphScattered Clouds
8:54 AM88.0 °F75.9 °F67 %29.82 in10.0 miENE (70°)9.2 mphMostly Cloudy
9:07 AM89.6 °F75.2 °F62 %29.85 in10.0 miEast (90°)10.4 mphMostly Cloudy
9:21 AM89.6 °F75.2 °F62 %29.85 in10.0 miEast (100°)9.2 mphScattered Clouds
9:54 AM89.1 °F75.9 °F65 %29.82 in10.0 miEast (80°)10.4 mphScattered Clouds
10:45 AM89.6 °F75.2 °F62 %29.85 in10.0 miEast (100°)8.1 mphMostly Cloudy
10:54 AM90.0 °F75.9 °F63 %29.82 in10.0 miEast (80°)11.5 mphMostly Cloudy
11:07 AM89.6 °F77.0 °F66 %29.84 in10.0 miENE (70°)5.8 mphScattered Clouds
11:54 AM90.0 °F75.0 °F61 %29.81 in10.0 miESE (110°)11.5 mph18.4 mphScattered Clouds
12:54 PM91.0 °F75.0 °F59 %29.79 in10.0 miEast (100°)9.2 mph17.3 mphPartly Cloudy
1:54 PM89.1 °F75.0 °F63 %29.78 in10.0 miEast (100°)9.2 mph0.00 inRainLight Rain
2:54 PM90.0 °F77.0 °F65 %29.77 in10.0 miSE (130°)8.1 mph0.00 inPartly Cloudy
3:54 PM89.1 °F75.0 °F63 %29.76 in10.0 miENE (60°)10.4 mphPartly Cloudy
4:54 PM87.1 °F75.9 °F69 %29.77 in10.0 miEast (90°)6.9 mphPartly Cloudy
5:54 PM87.1 °F75.9 °F69 %29.78 in10.0 miENE (70°)8.1 mphPartly Cloudy
6:54 PM86.0 °F75.9 °F72 %29.80 in10.0 miNE (40°)4.6 mphPartly Cloudy
7:54 PM84.9 °F75.9 °F74 %29.81 in10.0 miENE (70°)6.9 mphPartly Cloudy
8:54 PM84.9 °F75.9 °F74 %29.82 in10.0 miNE (50°)6.9 mphPartly Cloudy
9:54 PM84.9 °F75.9 °F74 %29.83 in10.0 miEast (90°)6.9 mphScattered Clouds
10:54 PM84.9 °F75.9 °F74 %29.83 in10.0 miENE (70°)5.8 mphPartly Cloudy
11:54 PM84.0 °F75.9 °F76 %29.82 in10.0 miEast (80°)5.8 mphPartly Cloudy
Hourly data recorded from PGUM, located miles away from Camp Quezon, Guam







STORIES FROM OUR PARTNERS